Flag for Algeria Weather past 2 weeks in Constantine, Algeria

Now
73 °F

Clear.


Feels Like: 76 °F
Forecast: 63 / 96 °F
Wind: 3 mph from East

Location: Constantine Airport

Current Time: Aug 21, 2014 at 11:03:17 PM

Latest Report: Aug 21, 2014 at 10:00 PM


Visibility: 10 mi

Pressure: 30.09 "Hg

Humidity: 61%

Dew point: 59 °F

Location of ConstantineLocation

Historic Weather in Constantine — Graph

°F

Constantine temperature yesterday

Maximum temperature yesterday: 91 °F (at 1:00 PM)
Minimum temperature yesterday: 72 °F (at 6:30 AM)
Average temperature yesterday: 80 °F

Past Weeks' High & Low Weather Summary

 TemperatureHumidityPressure
High108 °F (Aug 19, 2:00 PM)88% (Aug 17, 6:00 AM)30.18 "Hg (Aug 17, 6:00 AM)
Low57 °F (Aug 7, 4:30 AM)12% (Aug 19, 2:00 PM)29.92 "Hg (Aug 13, 3:00 PM)
Average80 °F47%30.06 "Hg
* Reported Aug 6 9:00 PM — Aug 21 9:30 PM, Constantine, Weather by CustomWeather, © 2014

Note: Actual official high and low records may vary slightly from our data, if they occured in-between our weather recording intervals... More about our weather records

Advertising

Constantine weather history for previous 24 hours

 ConditionsComfort  
Time TempWeatherWind HumidityBarometerVisibility
9:30 PM
Aug 21
75 °FClear.6 mph57%30.09 "Hg10 mi
9:00 PM75 °FClear.6 mph57%30.09 "Hg10 mi
8:30 PM77 °FPassing clouds.9 mph54%30.09 "HgN/A
8:00 PM79 °FPassing clouds.5 mph51%30.07 "HgN/A
7:30 PM79 °FPassing clouds.8 mph51%30.07 "HgN/A
7:00 PM82 °FPassing clouds.14 mph45%30.07 "HgN/A
6:30 PM84 °FPassing clouds.14 mph45%30.04 "HgN/A
6:00 PM86 °FPassing clouds.14 mph43%30.04 "HgN/A
5:30 PM88 °FPassing clouds.12 mph40%30.04 "HgN/A
5:00 PM90 °FPassing clouds.14 mph38%30.04 "HgN/A
4:30 PM90 °FPassing clouds.13 mph33%30.04 "HgN/A
3:30 PM91 °FSunny.10 mph30%30.04 "Hg10 mi
3:00 PM91 °FSunny.13 mph28%30.04 "Hg10 mi
2:30 PM91 °FSunny.14 mph30%30.04 "Hg10 mi
1:30 PM90 °FSunny.12 mph33%30.07 "Hg10 mi
1:00 PM90 °FSunny.12 mph33%30.09 "Hg10 mi
12:00 PM88 °FSunny.10 mph31%30.09 "Hg10 mi
11:30 AM88 °FSunny.10 mph31%30.09 "Hg10 mi
11:00 AM88 °FSunny.10 mph31%30.09 "Hg10 mi
10:30 AM84 °FSunny.10 mph40%30.09 "Hg10 mi
10:00 AM82 °FSunny.8 mph37%30.09 "Hg10 mi
9:00 AM81 °FSunny.6 mph48%30.09 "Hg10 mi
8:30 AM77 °FSunny.3 mph57%30.09 "Hg10 mi
7:30 AM73 °FSunny.No wind69%30.07 "Hg10 mi
7:00 AM70 °FSunny.No wind78%30.07 "Hg10 mi
6:00 AM66 °FSunny.No wind83%30.07 "Hg10 mi
5:30 AM66 °FClear.No wind78%30.07 "Hg10 mi
5:00 AM66 °FClear.No wind78%30.07 "Hg10 mi
4:30 AM68 °FClear.No wind78%30.07 "Hg10 mi
4:00 AM68 °FClear.No wind78%30.07 "Hg10 mi
3:30 AM70 °FClear.No wind73%30.07 "Hg10 mi
3:00 AM70 °FClear.No wind73%30.09 "Hg10 mi
2:30 AM72 °FClear.No wind69%30.09 "Hg10 mi
2:00 AM70 °FClear.No wind73%30.09 "Hg10 mi
1:30 AM70 °FClear.No wind69%30.09 "Hg10 mi
12:30 AM72 °FPassing clouds.No wind73%30.09 "HgN/A
12:00 AM72 °FPassing clouds.No wind65%30.12 "HgN/A
11:30 PM
Aug 20
73 °FPassing clouds.No wind61%30.12 "HgN/A
11:00 PM73 °FPassing clouds.No wind69%30.12 "HgN/A
Weather by CustomWeather, © 2014

See weather overviewHow to use our weather pages